| time (UTC) | temp C | wind direction | speed KPH | gust KPH | rain 1hr cm | rain 24hr cm | rain mn cm | humidity % | barometer mb |
| 20260902025546 | 18 | 133 | 4.8 | 0.0 | 0.00 | 0.00 | 0.00 | 93 | 1015.9 |
| 20260902025046 | 18 | 117 | 4.8 | 0.0 | 0.00 | 0.00 | 0.00 | 93 | 1015.9 |
| 20260902024546 | 18 | 130 | 1.6 | 0.0 | 0.00 | 0.00 | 0.00 | 94 | 1015.9 |
| 20260902024045 | 18 | 154 | 0.0 | 0.0 | 0.00 | 0.00 | 0.00 | 93 | 1015.8 |
| 20260902023544 | 18 | 173 | 1.6 | 0.0 | 0.00 | 0.00 | 0.00 | 94 | 1015.8 |
| 20260902023049 | 18 | 173 | 1.6 | 0.0 | 0.00 | 0.00 | 0.00 | 94 | 1015.8 |
| 20260902022548 | 18 | 172 | 0.0 | 0.0 | 0.00 | 0.00 | 0.00 | 94 | 1016.0 |
| 20260902022044 | 18 | 136 | 0.0 | 0.0 | 0.00 | 0.00 | 0.00 | 93 | 1016.0 |
| 20260902021544 | 18 | 136 | 0.0 | 0.0 | 0.00 | 0.00 | 0.00 | 93 | 1015.9 |
| 20260902021045 | 18 | 136 | 0.0 | 0.0 | 0.00 | 0.00 | 0.00 | 93 | 1015.9 |
| 20260902020544 | 18 | 136 | 0.0 | 0.0 | 0.00 | 0.00 | 0.00 | 93 | 1015.9 |
| 20260902020044 | 18 | 136 | 0.0 | 0.0 | 0.00 | 0.00 | 0.00 | 93 | 1016.0 |
| 20260902015544 | 18 | 136 | 0.0 | 0.0 | 0.00 | 0.00 | 0.00 | 93 | 1015.9 |
| 20260902015044 | 18 | 136 | 0.0 | 0.0 | 0.00 | 0.00 | 0.00 | 93 | 1015.6 |
| 20260902014544 | 19 | 136 | 0.0 | 0.0 | 0.00 | 0.00 | 0.00 | 93 | 1015.5 |
| 20260902014043 | 19 | 136 | 0.0 | 0.0 | 0.00 | 0.00 | 0.00 | 93 | 1015.5 |
| 20260902013543 | 19 | 136 | 0.0 | 0.0 | 0.00 | 0.00 | 0.00 | 93 | 1015.5 |
| 20260902013043 | 19 | 136 | 0.0 | 0.0 | 0.00 | 0.00 | 0.00 | 93 | 1015.5 |
| 20260902012542 | 19 | 136 | 1.6 | 0.0 | 0.00 | 0.00 | 0.00 | 93 | 1015.4 |
| 20260902012044 | 19 | 136 | 1.6 | 0.0 | 0.00 | 0.00 | 0.00 | 93 | 1015.3 |
| 20260902011543 | 19 | 138 | 1.6 | 0.0 | 0.00 | 0.00 | 0.00 | 93 | 1015.2 |
| 20260902011044 | 19 | 139 | 0.0 | 0.0 | 0.00 | 0.00 | 0.00 | 93 | 1015.1 |
| 20260902010542 | 19 | 121 | 0.0 | 0.0 | 0.00 | 0.00 | 0.00 | 93 | 1015.2 |
| 20260902010047 | 19 | 119 | 0.0 | 0.0 | 0.00 | 0.00 | 0.00 | 93 | 1015.2 |
| 20260902005543 | 19 | 119 | 0.0 | 0.0 | 0.00 | 0.00 | 0.00 | 93 | 1015.1 |
| 20260902005045 | 19 | 118 | 0.0 | 0.0 | 0.00 | 0.00 | 0.00 | 93 | 1015.2 |
| 20260902004542 | 19 | 118 | 0.0 | 0.0 | 0.00 | 0.00 | 0.00 | 93 | 1015.2 |
| 20260902004041 | 19 | 118 | 0.0 | 0.0 | 0.00 | 0.00 | 0.00 | 92 | 1015.1 |
| 20260902003545 | 19 | 118 | 1.6 | 0.0 | 0.00 | 0.00 | 0.00 | 92 | 1015.1 |
| 20260902003041 | 19 | 118 | 3.2 | 0.0 | 0.00 | 0.00 | 0.00 | 92 | 1015.0 |
| 20260902002541 | 19 | 115 | 3.2 | 0.0 | 0.00 | 0.00 | 0.00 | 92 | 1014.9 |
| 20260902002041 | 19 | 67 | 3.2 | 0.0 | 0.00 | 0.00 | 0.00 | 92 | 1015.0 |
| 20260902001541 | 19 | 65 | 3.2 | 0.0 | 0.00 | 0.00 | 0.00 | 93 | 1014.9 |
| 20260902001042 | 19 | 95 | 4.8 | 0.0 | 0.00 | 0.00 | 0.00 | 92 | 1014.8 |
| 20260902000541 | 19 | 67 | 4.8 | 0.0 | 0.00 | 0.00 | 0.00 | 92 | 1014.9 |
| 20260902000041 | 19 | 65 | 3.2 | 0.0 | 0.00 | 0.00 | 0.00 | 92 | 1014.9 |
| 20260901235544 | 20 | 103 | 1.6 | 0.0 | 0.00 | 0.00 | 0.00 | 92 | 1014.8 |
| 20260901235042 | 20 | 103 | 1.6 | 0.0 | 0.00 | 0.00 | 0.00 | 92 | 1014.8 |
| 20260901234540 | 20 | 103 | 0.0 | 0.0 | 0.00 | 0.00 | 0.00 | 92 | 1014.6 |
| 20260901234040 | 20 | 83 | 0.0 | 0.0 | 0.00 | 0.00 | 0.00 | 92 | 1014.7 |
| 20260901233541 | 20 | 83 | 0.0 | 0.0 | 0.00 | 0.00 | 0.00 | 91 | 1014.7 |
| 20260901233039 | 20 | 83 | 1.6 | 0.0 | 0.00 | 0.00 | 0.00 | 91 | 1014.8 |
| 20260901232539 | 20 | 83 | 1.6 | 0.0 | 0.00 | 0.00 | 0.00 | 91 | 1014.7 |
| 20260901232039 | 20 | 79 | 0.0 | 0.0 | 0.00 | 0.00 | 0.00 | 91 | 1014.6 |
| 20260901231541 | 20 | 79 | 1.6 | 0.0 | 0.00 | 0.00 | 0.00 | 90 | 1014.7 |
| 20260901231039 | 20 | 79 | 3.2 | 0.0 | 0.00 | 0.00 | 0.00 | 90 | 1014.6 |
| 20260901230539 | 20 | 80 | 4.8 | 0.0 | 0.00 | 0.00 | 0.00 | 91 | 1014.5 |
| 20260901230045 | 20 | 112 | 6.4 | 0.0 | 0.00 | 0.00 | 0.00 | 90 | 1014.6 |
| 20260901225538 | 20 | 117 | 6.4 | 0.0 | 0.00 | 0.00 | 0.00 | 90 | 1014.6 |
| 20260901225038 | 20 | 121 | 6.4 | 0.0 | 0.00 | 0.00 | 0.00 | 90 | 1014.6 |
| 20260901224539 | 20 | 130 | 3.2 | 0.0 | 0.00 | 0.00 | 0.00 | 90 | 1014.6 |
| 20260901224040 | 20 | 86 | 3.2 | 0.0 | 0.00 | 0.00 | 0.00 | 91 | 1014.7 |
| 20260901223538 | 20 | 98 | 3.2 | 0.0 | 0.00 | 0.00 | 0.00 | 91 | 1014.6 |
| 20260901223038 | 20 | 104 | 3.2 | 0.0 | 0.00 | 0.00 | 0.00 | 90 | 1014.7 |
| 20260901222537 | 20 | 104 | 3.2 | 0.0 | 0.00 | 0.00 | 0.00 | 90 | 1014.5 |
| 20260901222037 | 20 | 47 | 3.2 | 0.0 | 0.00 | 0.00 | 0.00 | 90 | 1014.5 |
| 20260901221603 | 20 | 84 | 3.2 | 0.0 | 0.00 | 0.00 | 0.00 | 90 | 1014.5 |
| 20260901221038 | 20 | 101 | 4.8 | 0.0 | 0.00 | 0.00 | 0.00 | 91 | 1014.3 |
| 20260901220537 | 20 | 111 | 4.8 | 0.0 | 0.00 | 0.00 | 0.00 | 91 | 1014.1 |
| 20260901220038 | 20 | 96 | 4.8 | 0.0 | 0.00 | 0.00 | 0.00 | 90 | 1014.4 |
| 20260901215538 | 20 | 74 | 6.4 | 0.0 | 0.00 | 0.00 | 0.00 | 90 | 1014.5 |
| 20260901215037 | 20 | 67 | 6.4 | 0.0 | 0.00 | 0.00 | 0.00 | 90 | 1014.7 |
| 20260901214537 | 20 | 70 | 6.4 | 0.0 | 0.00 | 0.00 | 0.00 | 90 | 1014.7 |
| 20260901214037 | 20 | 58 | 6.4 | 0.0 | 0.00 | 0.00 | 0.00 | 90 | 1014.7 |
| 20260901213535 | 20 | 57 | 4.8 | 0.0 | 0.00 | 0.00 | 0.00 | 90 | 1014.7 |
| 20260901213057 | 20 | 41 | 3.2 | 0.0 | 0.00 | 0.00 | 0.00 | 90 | 1014.7 |
| 20260901212534 | 20 | 64 | 3.2 | 0.0 | 0.00 | 0.00 | 0.00 | 90 | 1014.6 |
| 20260901212034 | 20 | 51 | 1.6 | 0.0 | 0.00 | 0.00 | 0.00 | 90 | 1014.4 |
| 20260901211541 | 20 | 115 | 1.6 | 0.0 | 0.00 | 0.00 | 0.00 | 90 | 1014.4 |
| 20260901211033 | 20 | 115 | 3.2 | 0.0 | 0.00 | 0.00 | 0.00 | 90 | 1014.4 |
| 20260901210534 | 20 | 121 | 6.4 | 0.0 | 0.00 | 0.00 | 0.00 | 91 | 1014.2 |
| 20260901210038 | 20 | 113 | 8.0 | 0.0 | 0.00 | 0.00 | 0.00 | 91 | 1014.2 |
| 20260901205532 | 20 | 114 | 9.7 | 0.0 | 0.00 | 0.00 | 0.00 | 92 | 1014.1 |
| 20260901205031 | 20 | 112 | 8.0 | 0.0 | 0.00 | 0.00 | 0.00 | 93 | 1014.1 |
| 20260901204530 | 19 | 111 | 4.8 | 0.0 | 0.00 | 0.00 | 0.00 | 93 | 1014.1 |
| 20260901204032 | 19 | 116 | 4.8 | 0.0 | 0.00 | 0.00 | 0.00 | 93 | 1014.1 |
| 20260901203534 | 19 | 119 | 4.8 | 0.0 | 0.00 | 0.00 | 0.00 | 93 | 1014.2 |
| 20260901203040 | 19 | 116 | 3.2 | 0.0 | 0.00 | 0.00 | 0.00 | 94 | 1014.1 |
| 20260901202529 | 19 | 123 | 4.8 | 0.0 | 0.00 | 0.00 | 0.00 | 94 | 1014.2 |
| 20260901202029 | 19 | 123 | 4.8 | 0.0 | 0.00 | 0.00 | 0.00 | 94 | 1014.3 |
| 20260901201529 | 19 | 122 | 1.6 | 0.0 | 0.00 | 0.00 | 0.00 | 94 | 1014.3 |
| 20260901201029 | 19 | 112 | 1.6 | 0.0 | 0.00 | 0.00 | 0.00 | 94 | 1014.4 |
| 20260901200533 | 19 | 111 | 3.2 | 0.0 | 0.00 | 0.00 | 0.00 | 94 | 1014.3 |
| 20260901200039 | 19 | 111 | 4.8 | 0.0 | 0.00 | 0.00 | 0.00 | 94 | 1014.3 |
| 20260901195530 | 19 | 105 | 4.8 | 0.0 | 0.00 | 0.00 | 0.00 | 94 | 1014.3 |
| 20260901195031 | 19 | 92 | 6.4 | 0.0 | 0.00 | 0.00 | 0.00 | 94 | 1014.4 |
| 20260901194529 | 19 | 78 | 6.4 | 0.0 | 0.00 | 0.00 | 0.00 | 95 | 1014.3 |
| 20260901194028 | 19 | 109 | 6.4 | 0.0 | 0.00 | 0.00 | 0.00 | 95 | 1014.3 |
| 20260901193528 | 19 | 126 | 6.4 | 0.0 | 0.00 | 0.00 | 0.00 | 94 | 1014.4 |
| 20260901193029 | 19 | 102 | 4.8 | 0.0 | 0.00 | 0.00 | 0.00 | 94 | 1014.3 |
| 20260901192527 | 19 | 104 | 4.8 | 0.0 | 0.00 | 0.00 | 0.00 | 94 | 1014.3 |
| 20260901192030 | 19 | 111 | 6.4 | 0.0 | 0.00 | 0.00 | 0.00 | 94 | 1014.0 |
| 20260901191528 | 19 | 113 | 6.4 | 0.0 | 0.00 | 0.00 | 0.00 | 94 | 1013.9 |
| 20260901191030 | 19 | 109 | 6.4 | 0.0 | 0.00 | 0.00 | 0.00 | 94 | 1013.9 |
| 20260901190527 | 19 | 133 | 6.4 | 0.0 | 0.00 | 0.00 | 0.00 | 94 | 1014.0 |
| 20260901190027 | 19 | 107 | 8.0 | 0.0 | 0.00 | 0.00 | 0.00 | 94 | 1014.0 |
| 20260901185527 | 19 | 117 | 8.0 | 0.0 | 0.00 | 0.00 | 0.00 | 94 | 1014.0 |
| 20260901185026 | 19 | 107 | 9.7 | 0.0 | 0.00 | 0.00 | 0.00 | 95 | 1014.0 |
| 20260901184532 | 19 | 101 | 9.7 | 0.0 | 0.00 | 0.00 | 0.00 | 95 | 1014.0 |
| 20260901184026 | 19 | 98 | 9.7 | 0.0 | 0.00 | 0.00 | 0.00 | 95 | 1014.0 |
| 20260901183525 | 19 | 113 | 8.0 | 0.0 | 0.00 | 0.00 | 0.00 | 95 | 1014.0 |
| 20260901183025 | 19 | 109 | 6.4 | 0.0 | 0.00 | 0.00 | 0.00 | 95 | 1014.0 |
| 20260901182525 | 19 | 109 | 6.4 | 0.0 | 0.00 | 0.00 | 0.00 | 96 | 1014.0 |
| 20260901182025 | 19 | 108 | 8.0 | 0.0 | 0.00 | 0.00 | 0.00 | 96 | 1013.9 |
| 20260901181524 | 19 | 115 | 8.0 | 0.0 | 0.00 | 0.00 | 0.00 | 96 | 1014.0 |
| 20260901181024 | 19 | 127 | 8.0 | 0.0 | 0.00 | 0.00 | 0.00 | 96 | 1013.9 |
| 20260901180524 | 19 | 132 | 8.0 | 0.0 | 0.00 | 0.00 | 0.00 | 96 | 1014.0 |
| 20260901180023 | 19 | 120 | 8.0 | 0.0 | 0.00 | 0.00 | 0.00 | 96 | 1013.9 |
| 20260901175523 | 19 | 119 | 6.4 | 0.0 | 0.00 | 0.00 | 0.00 | 96 | 1013.9 |
| 20260901175022 | 19 | 119 | 8.0 | 0.0 | 0.00 | 0.00 | 0.00 | 96 | 1013.8 |
| 20260901174523 | 19 | 110 | 9.7 | 0.0 | 0.00 | 0.00 | 0.00 | 95 | 1013.7 |
| 20260901174024 | 19 | 117 | 8.0 | 0.0 | 0.00 | 0.00 | 0.00 | 96 | 1013.7 |
| 20260901173521 | 19 | 116 | 6.4 | 0.0 | 0.00 | 0.00 | 0.00 | 96 | 1013.9 |
| 20260901173021 | 19 | 104 | 6.4 | 0.0 | 0.00 | 0.00 | 0.00 | 96 | 1013.8 |
| 20260901172521 | 19 | 82 | 6.4 | 0.0 | 0.00 | 0.00 | 0.00 | 96 | 1013.9 |
| 20260901172023 | 19 | 83 | 6.4 | 0.0 | 0.00 | 0.00 | 0.00 | 96 | 1013.8 |
| 20260901171524 | 19 | 106 | 8.0 | 0.0 | 0.00 | 0.00 | 0.00 | 96 | 1013.8 |
| 20260901171021 | 19 | 110 | 8.0 | 0.0 | 0.00 | 0.00 | 0.00 | 96 | 1013.7 |
| 20260901170521 | 19 | 109 | 8.0 | 0.0 | 0.00 | 0.00 | 0.00 | 96 | 1013.7 |
| 20260901170020 | 19 | 107 | 6.4 | 0.0 | 0.00 | 0.00 | 0.00 | 96 | 1013.7 |
| 20260901165521 | 19 | 109 | 4.8 | 0.0 | 0.00 | 0.00 | 0.00 | 96 | 1013.6 |
| 20260901165022 | 19 | 88 | 4.8 | 0.0 | 0.00 | 0.00 | 0.00 | 96 | 1013.6 |
| 20260901164520 | 19 | 122 | 4.8 | 0.0 | 0.00 | 0.00 | 0.00 | 97 | 1013.7 |
| 20260901164020 | 19 | 105 | 4.8 | 0.0 | 0.00 | 0.00 | 0.00 | 96 | 1013.7 |
| 20260901163518 | 18 | 92 | 1.6 | 0.0 | 0.00 | 0.00 | 0.00 | 96 | 1013.9 |
| 20260901163018 | 18 | 102 | 1.6 | 0.0 | 0.00 | 0.00 | 0.00 | 96 | 1014.0 |
| 20260901162518 | 18 | 102 | 1.6 | 0.0 | 0.00 | 0.00 | 0.00 | 96 | 1014.1 |
| 20260901162020 | 18 | 102 | 1.6 | 0.0 | 0.00 | 0.00 | 0.00 | 96 | 1014.0 |
| 20260901161517 | 18 | 93 | 3.2 | 0.0 | 0.00 | 0.00 | 0.00 | 96 | 1014.0 |
| 20260901161017 | 18 | 68 | 3.2 | 0.0 | 0.00 | 0.00 | 0.00 | 96 | 1014.1 |
| 20260901160515 | 18 | 64 | 1.6 | 0.0 | 0.00 | 0.00 | 0.00 | 96 | 1014.1 |
| 20260901160021 | 18 | 98 | 0.0 | 0.0 | 0.00 | 0.00 | 0.00 | 96 | 1014.0 |
| 20260901155516 | 18 | 98 | 0.0 | 0.0 | 0.00 | 0.00 | 0.00 | 96 | 1014.2 |
| 20260901155016 | 18 | 98 | 1.6 | 0.0 | 0.00 | 0.00 | 0.00 | 96 | 1014.0 |
| 20260901154518 | 18 | 98 | 3.2 | 0.0 | 0.00 | 0.00 | 0.00 | 96 | 1014.1 |
| 20260901154017 | 18 | 98 | 3.2 | 0.0 | 0.00 | 0.00 | 0.00 | 96 | 1014.0 |
| 20260901153518 | 18 | 100 | 3.2 | 0.0 | 0.00 | 0.00 | 0.00 | 96 | 1014.0 |
| 20260901153020 | 18 | 86 | 1.6 | 0.0 | 0.00 | 0.00 | 0.00 | 96 | 1014.1 |
| 20260901152514 | 18 | 238 | 1.6 | 0.0 | 0.00 | 0.00 | 0.00 | 95 | 1014.0 |
| 20260901152015 | 18 | 238 | 1.6 | 0.0 | 0.00 | 0.00 | 0.00 | 96 | 1013.9 |
| 20260901151516 | 18 | 225 | 1.6 | 0.0 | 0.00 | 0.00 | 0.00 | 96 | 1013.9 |
| 20260901151014 | 18 | 224 | 1.6 | 0.0 | 0.00 | 0.00 | 0.00 | 96 | 1013.8 |
| 20260901150513 | 18 | 222 | 1.6 | 0.0 | 0.00 | 0.00 | 0.00 | 96 | 1013.5 |
| 20260901150013 | 18 | 222 | 3.2 | 0.0 | 0.00 | 0.00 | 0.00 | 96 | 1013.5 |
| 20260901145515 | 18 | 215 | 3.2 | 0.0 | 0.00 | 0.00 | 0.00 | 96 | 1013.3 |
| 20260901145013 | 18 | 190 | 3.2 | 0.0 | 0.00 | 0.00 | 0.00 | 96 | 1013.0 |
| 20260901144513 | 18 | 219 | 1.6 | 0.0 | 0.00 | 0.00 | 0.00 | 96 | 1012.9 |
| 20260901144012 | 18 | 142 | 4.8 | 0.0 | 0.00 | 0.00 | 0.00 | 96 | 1013.0 |
| 20260901143511 | 18 | 171 | 8.0 | 0.0 | 0.00 | 0.00 | 0.00 | 96 | 1013.3 |
| 20260901143011 | 18 | 135 | 12.9 | 0.0 | 0.00 | 0.00 | 0.00 | 96 | 1013.1 |
| 20260901142510 | 18 | 327 | 9.7 | 0.0 | 0.00 | 0.00 | 0.00 | 96 | 1014.9 |
| 20260901142013 | 18 | 331 | 3.2 | 0.0 | 0.00 | 0.00 | 0.00 | 96 | 1014.8 |
| 20260901141509 | 18 | 117 | 0.0 | 0.0 | 0.00 | 0.00 | 0.00 | 96 | 1014.0 |
| 20260901141012 | 18 | 117 | 1.6 | 0.0 | 0.00 | 0.00 | 0.00 | 96 | 1013.8 |
| 20260901140509 | 18 | 142 | 0.0 | 0.0 | 0.00 | 0.00 | 0.00 | 96 | 1013.9 |
| 20260901140014 | 18 | 143 | 0.0 | 0.0 | 0.00 | 0.00 | 0.00 | 96 | 1013.9 |
| 20260901135513 | 18 | 142 | 0.0 | 0.0 | 0.00 | 0.00 | 0.00 | 96 | 1013.8 |
| 20260901135009 | 18 | 142 | 1.6 | 0.0 | 0.00 | 0.00 | 0.00 | 96 | 1013.7 |
| 20260901134509 | 18 | 142 | 1.6 | 0.0 | 0.00 | 0.00 | 0.00 | 96 | 1013.7 |
| 20260901134008 | 18 | 144 | 0.0 | 0.0 | 0.00 | 0.00 | 0.00 | 96 | 1013.8 |
| 20260901133507 | 18 | 144 | 0.0 | 0.0 | 0.00 | 0.00 | 0.00 | 96 | 1013.9 |
| 20260901133008 | 18 | 142 | 0.0 | 0.0 | 0.00 | 0.00 | 0.00 | 96 | 1013.8 |
| 20260901132508 | 18 | 142 | 0.0 | 0.0 | 0.00 | 0.00 | 0.00 | 96 | 1013.7 |
| 20260901132006 | 18 | 142 | 0.0 | 0.0 | 0.00 | 0.00 | 0.00 | 96 | 1013.8 |
| 20260901131520 | 18 | 142 | 0.0 | 0.0 | 0.00 | 0.00 | 0.00 | 96 | 1013.9 |
| 20260901131010 | 18 | 142 | 0.0 | 0.0 | 0.00 | 0.00 | 0.00 | 96 | 1014.0 |
| 20260901130507 | 18 | 142 | 0.0 | 0.0 | 0.00 | 0.00 | 0.00 | 97 | 1014.0 |
| 20260901130007 | 18 | 142 | 0.0 | 0.0 | 0.00 | 0.00 | 0.00 | 97 | 1014.1 |
| 20260901125507 | 18 | 142 | 0.0 | 0.0 | 0.00 | 0.00 | 0.00 | 96 | 1014.3 |
| 20260901125006 | 18 | 142 | 0.0 | 0.0 | 0.00 | 0.00 | 0.00 | 96 | 1014.3 |
| 20260901124506 | 18 | 142 | 0.0 | 0.0 | 0.00 | 0.00 | 0.00 | 96 | 1014.4 |
| 20260901124006 | 18 | 142 | 0.0 | 0.0 | 0.00 | 0.00 | 0.00 | 96 | 1014.3 |
| 20260901123505 | 18 | 142 | 0.0 | 0.0 | 0.00 | 0.00 | 0.00 | 96 | 1014.4 |
| 20260901123005 | 18 | 142 | 0.0 | 0.0 | 0.00 | 0.00 | 0.00 | 96 | 1014.4 |
| 20260901122505 | 18 | 142 | 1.6 | 0.0 | 0.00 | 0.00 | 0.00 | 96 | 1014.4 |
| 20260901122004 | 18 | 142 | 3.2 | 0.0 | 0.00 | 0.00 | 0.00 | 96 | 1014.5 |
| 20260901121504 | 18 | 139 | 4.8 | 0.0 | 0.00 | 0.00 | 0.00 | 96 | 1014.4 |
| 20260901121005 | 18 | 101 | 6.4 | 0.0 | 0.00 | 0.00 | 0.00 | 96 | 1014.4 |
| 20260901120504 | 18 | 71 | 6.4 | 0.0 | 0.00 | 0.00 | 0.00 | 96 | 1014.5 |
| 20260901120004 | 18 | 70 | 8.0 | 0.0 | 0.00 | 0.00 | 0.00 | 96 | 1014.7 |
| 20260901115503 | 18 | 106 | 8.0 | 0.0 | 0.00 | 0.00 | 0.00 | 96 | 1014.5 |
| 20260901115003 | 18 | 56 | 8.0 | 0.0 | 0.00 | 0.00 | 0.00 | 96 | 1014.9 |
| 20260901114509 | 18 | 51 | 6.4 | 0.0 | 0.00 | 0.00 | 0.00 | 96 | 1014.8 |
| 20260901114003 | 18 | 50 | 3.2 | 0.0 | 0.00 | 0.00 | 0.00 | 96 | 1014.7 |
| 20260901113503 | 18 | 67 | 3.2 | 0.0 | 0.00 | 0.00 | 0.00 | 96 | 1014.5 |
| 20260901113003 | 18 | 86 | 3.2 | 0.0 | 0.00 | 0.00 | 0.00 | 96 | 1014.4 |
| 20260901112502 | 18 | 121 | 4.8 | 0.0 | 0.00 | 0.00 | 0.00 | 96 | 1014.5 |
| 20260901112002 | 18 | 122 | 6.4 | 0.0 | 0.00 | 0.00 | 0.00 | 96 | 1014.4 |
| 20260901111502 | 18 | 132 | 4.8 | 0.0 | 0.00 | 0.00 | 0.00 | 96 | 1014.3 |
| 20260901111001 | 18 | 31 | 3.2 | 0.0 | 0.00 | 0.00 | 0.00 | 96 | 1014.5 |
| 20260901110503 | 18 | 99 | 1.6 | 0.0 | 0.00 | 0.00 | 0.00 | 96 | 1014.5 |
| 20260901110002 | 18 | 109 | 3.2 | 0.0 | 0.00 | 0.00 | 0.00 | 96 | 1014.7 |
| 20260901105505 | 18 | 110 | 3.2 | 0.0 | 0.00 | 0.00 | 0.00 | 96 | 1014.4 |
| 20260901105004 | 18 | 321 | 1.6 | 0.0 | 0.00 | 0.00 | 0.00 | 96 | 1014.5 |
| 20260901104502 | 18 | 294 | 3.2 | 0.0 | 0.00 | 0.00 | 0.00 | 96 | 1014.5 |
| 20260901104001 | 18 | 286 | 3.2 | 0.0 | 0.00 | 0.00 | 0.00 | 96 | 1014.5 |
| 20260901103602 | 18 | 282 | 1.6 | 0.0 | 0.00 | 0.00 | 0.00 | 95 | 1014.4 |
| 20260901103100 | 18 | 150 | 0.0 | 0.0 | 0.00 | 0.00 | 0.00 | 95 | 1013.9 |
| 20260901102600 | 18 | 94 | 0.0 | 0.0 | 0.00 | 0.00 | 0.00 | 95 | 1014.2 |
| 20260901102101 | 18 | 81 | 1.6 | 0.0 | 0.00 | 0.00 | 0.00 | 95 | 1014.3 |
| 20260901101600 | 18 | 81 | 3.2 | 0.0 | 0.00 | 0.00 | 0.00 | 95 | 1014.3 |
| 20260901101059 | 18 | 96 | 4.8 | 0.0 | 0.00 | 0.00 | 0.00 | 95 | 1014.3 |
| 20260901100559 | 18 | 110 | 4.8 | 0.0 | 0.00 | 0.00 | 0.00 | 96 | 1014.1 |
| 20260901100101 | 18 | 27 | 6.4 | 0.0 | 0.00 | 0.00 | 0.00 | 95 | 1014.4 |
| 20260901095559 | 18 | 96 | 4.8 | 0.0 | 0.00 | 0.00 | 0.00 | 96 | 1014.0 |
| 20260901095059 | 18 | 15 | 1.6 | 0.0 | 0.00 | 0.00 | 0.00 | 95 | 1014.6 |
| 20260901094559 | 18 | 312 | 3.2 | 0.0 | 0.00 | 0.00 | 0.00 | 95 | 1014.9 |
| 20260901094058 | 18 | 108 | 4.8 | 0.0 | 0.00 | 0.00 | 0.00 | 95 | 1014.3 |
| 20260901093557 | 18 | 56 | 6.4 | 0.0 | 0.00 | 0.00 | 0.00 | 95 | 1014.0 |
| 20260901093101 | 18 | 355 | 6.4 | 0.0 | 0.00 | 0.00 | 0.00 | 96 | 1014.4 |
| 20260901092556 | 18 | 22 | 4.8 | 0.0 | 0.00 | 0.00 | 0.00 | 95 | 1014.0 |
| 20260901092056 | 18 | 76 | 1.6 | 0.0 | 0.00 | 0.00 | 0.00 | 94 | 1013.7 |
| 20260901091605 | 18 | 117 | 0.0 | 0.0 | 0.00 | 0.00 | 0.00 | 94 | 1013.7 |
| 20260901091055 | 18 | 122 | 1.6 | 0.0 | 0.00 | 0.00 | 0.00 | 94 | 1013.7 |
| 20260901090555 | 18 | 122 | 3.2 | 0.0 | 0.00 | 0.00 | 0.00 | 94 | 1013.7 |
| 20260901090057 | 18 | 121 | 4.8 | 0.0 | 0.00 | 0.00 | 0.00 | 94 | 1013.7 |
| 20260901085555 | 18 | 123 | 4.8 | 0.0 | 0.00 | 0.00 | 0.00 | 94 | 1013.5 |
| 20260901085054 | 18 | 100 | 3.2 | 0.0 | 0.00 | 0.00 | 0.00 | 94 | 1013.7 |
| 20260901084558 | 18 | 117 | 3.2 | 0.0 | 0.00 | 0.00 | 0.00 | 94 | 1013.7 |
| 20260901084054 | 18 | 117 | 3.2 | 0.0 | 0.00 | 0.00 | 0.00 | 94 | 1013.7 |
| 20260901083553 | 18 | 118 | 3.2 | 0.0 | 0.00 | 0.00 | 0.00 | 94 | 1013.8 |
| 20260901083052 | 18 | 119 | 3.2 | 0.0 | 0.00 | 0.00 | 0.00 | 94 | 1013.8 |
| 20260901082551 | 18 | 119 | 1.6 | 0.0 | 0.00 | 0.00 | 0.00 | 94 | 1013.9 |
| 20260901082050 | 18 | 119 | 0.0 | 0.0 | 0.00 | 0.00 | 0.00 | 94 | 1014.0 |
| 20260901081551 | 18 | 119 | 0.0 | 0.0 | 0.00 | 0.00 | 0.00 | 94 | 1014.1 |
| 20260901081051 | 18 | 119 | 0.0 | 0.0 | 0.00 | 0.00 | 0.00 | 93 | 1014.0 |
| 20260901080553 | 18 | 119 | 1.6 | 0.0 | 0.00 | 0.00 | 0.00 | 93 | 1014.1 |
| 20260901080050 | 18 | 119 | 4.8 | 0.0 | 0.00 | 0.00 | 0.00 | 93 | 1014.0 |
| 20260901075550 | 18 | 119 | 4.8 | 0.0 | 0.00 | 0.00 | 0.00 | 93 | 1014.1 |
| 20260901075048 | 18 | 121 | 4.8 | 0.0 | 0.00 | 0.00 | 0.00 | 93 | 1014.2 |
| 20260901074548 | 18 | 102 | 1.6 | 0.0 | 0.00 | 0.00 | 0.00 | 94 | 1014.2 |
| 20260901074049 | 17 | 80 | 0.0 | 0.0 | 0.00 | 0.00 | 0.00 | 94 | 1014.5 |
| 20260901073547 | 17 | 78 | 0.0 | 0.0 | 0.00 | 0.00 | 0.00 | 94 | 1014.6 |
| 20260901073046 | 17 | 77 | 1.6 | 0.0 | 0.00 | 0.00 | 0.00 | 94 | 1014.7 |
| 20260901072547 | 17 | 207 | 1.6 | 0.0 | 0.00 | 0.00 | 0.00 | 94 | 1014.7 |
| 20260901072049 | 17 | 207 | 1.6 | 0.0 | 0.00 | 0.00 | 0.00 | 94 | 1014.6 |
| 20260901071557 | 17 | 252 | 1.6 | 0.0 | 0.00 | 0.00 | 0.00 | 94 | 1014.6 |
| 20260901071050 | 17 | 252 | 1.6 | 0.0 | 0.00 | 0.00 | 0.00 | 94 | 1014.5 |
| 20260901070546 | 17 | 256 | 1.6 | 0.0 | 0.00 | 0.00 | 0.00 | 94 | 1014.8 |
| 20260901070046 | 17 | 257 | 1.6 | 0.0 | 0.00 | 0.00 | 0.00 | 94 | 1014.8 |
| 20260901065546 | 17 | 128 | 0.0 | 0.0 | 0.00 | 0.00 | 0.00 | 94 | 1014.7 |
| 20260901065046 | 17 | 128 | 0.0 | 0.0 | 0.00 | 0.00 | 0.00 | 94 | 1014.5 |
| 20260901064546 | 17 | 128 | 0.0 | 0.0 | 0.00 | 0.00 | 0.00 | 94 | 1014.5 |
| 20260901064045 | 17 | 128 | 0.0 | 0.0 | 0.00 | 0.00 | 0.00 | 94 | 1014.5 |
| 20260901063544 | 17 | 128 | 1.6 | 0.0 | 0.00 | 0.00 | 0.00 | 94 | 1014.6 |
| 20260901063043 | 17 | 128 | 3.2 | 0.0 | 0.00 | 0.00 | 0.00 | 94 | 1014.8 |
| 20260901062543 | 17 | 128 | 3.2 | 0.0 | 0.00 | 0.00 | 0.00 | 94 | 1014.9 |
| 20260901062045 | 17 | 128 | 4.8 | 0.0 | 0.00 | 0.00 | 0.00 | 94 | 1014.9 |
| 20260901061542 | 17 | 128 | 4.8 | 0.0 | 0.00 | 0.00 | 0.00 | 94 | 1014.9 |
| 20260901061042 | 17 | 128 | 4.8 | 0.0 | 0.00 | 0.00 | 0.00 | 94 | 1014.9 |
| 20260901060544 | 17 | 128 | 4.8 | 0.0 | 0.00 | 0.00 | 0.00 | 94 | 1015.0 |
| 20260901060041 | 17 | 128 | 4.8 | 0.0 | 0.00 | 0.00 | 0.00 | 94 | 1015.1 |
| 20260901055540 | 18 | 130 | 4.8 | 0.0 | 0.00 | 0.00 | 0.00 | 94 | 1015.3 |
| 20260901055039 | 17 | 130 | 6.4 | 0.0 | 0.00 | 0.00 | 0.00 | 94 | 1015.4 |
| 20260901054539 | 18 | 121 | 3.2 | 0.0 | 0.00 | 0.00 | 0.00 | 94 | 1015.5 |
| 20260901054040 | 17 | 127 | 0.0 | 0.0 | 0.00 | 0.00 | 0.00 | 94 | 1015.4 |
| 20260901053540 | 17 | 134 | 0.0 | 0.0 | 0.00 | 0.00 | 0.00 | 94 | 1015.5 |
| 20260901053043 | 17 | 140 | 0.0 | 0.0 | 0.00 | 0.00 | 0.00 | 94 | 1015.7 |
| 20260901052538 | 17 | 140 | 0.0 | 0.0 | 0.00 | 0.00 | 0.00 | 94 | 1015.7 |
| 20260901052038 | 17 | 140 | 0.0 | 0.0 | 0.00 | 0.00 | 0.00 | 94 | 1015.7 |
| 20260901051538 | 17 | 140 | 1.6 | 0.0 | 0.00 | 0.00 | 0.00 | 94 | 1015.7 |
| 20260901051038 | 17 | 140 | 3.2 | 0.0 | 0.00 | 0.00 | 0.00 | 94 | 1015.7 |
| 20260901050538 | 17 | 142 | 4.8 | 0.0 | 0.00 | 0.00 | 0.00 | 94 | 1015.5 |
| 20260901050038 | 17 | 143 | 6.4 | 0.0 | 0.00 | 0.00 | 0.00 | 94 | 1015.6 |
| 20260901045537 | 17 | 136 | 8.0 | 0.0 | 0.00 | 0.00 | 0.00 | 93 | 1015.3 |
| 20260901045036 | 17 | 126 | 4.8 | 0.0 | 0.00 | 0.00 | 0.00 | 93 | 1015.7 |
| 20260901044543 | 17 | 88 | 4.8 | 0.0 | 0.00 | 0.00 | 0.00 | 94 | 1016.1 |
| 20260901044036 | 17 | 92 | 3.2 | 0.0 | 0.00 | 0.00 | 0.00 | 94 | 1016.1 |
| 20260901043535 | 17 | 136 | 3.2 | 0.0 | 0.00 | 0.00 | 0.00 | 94 | 1016.1 |
| 20260901043033 | 17 | 137 | 3.2 | 0.0 | 0.00 | 0.00 | 0.00 | 94 | 1015.8 |
| 20260901042537 | 17 | 137 | 1.6 | 0.0 | 0.00 | 0.00 | 0.00 | 94 | 1015.7 |
| 20260901042033 | 17 | 138 | 3.2 | 0.0 | 0.00 | 0.00 | 0.00 | 94 | 1015.7 |
| 20260901041533 | 17 | 138 | 6.4 | 0.0 | 0.00 | 0.00 | 0.00 | 94 | 1015.6 |
| 20260901041035 | 17 | 138 | 4.8 | 0.0 | 0.00 | 0.00 | 0.00 | 94 | 1015.6 |
| 20260901040533 | 17 | 137 | 3.2 | 0.0 | 0.00 | 0.00 | 0.00 | 94 | 1015.7 |
| 20260901040031 | 17 | 137 | 3.2 | 0.0 | 0.00 | 0.00 | 0.00 | 93 | 1015.8 |
| 20260901035533 | 17 | 136 | 3.2 | 0.0 | 0.00 | 0.00 | 0.00 | 94 | 1015.8 |
| 20260901035031 | 17 | 135 | 3.2 | 0.0 | 0.00 | 0.00 | 0.00 | 93 | 1015.8 |
| 20260901034533 | 17 | 135 | 1.6 | 0.0 | 0.00 | 0.00 | 0.00 | 93 | 1015.8 |
| 20260901034034 | 17 | 135 | 1.6 | 0.0 | 0.00 | 0.00 | 0.00 | 93 | 1015.9 |
| 20260901033530 | 17 | 135 | 1.6 | 0.0 | 0.00 | 0.00 | 0.00 | 93 | 1015.8 |
| 20260901033031 | 17 | 135 | 1.6 | 0.0 | 0.00 | 0.00 | 0.00 | 93 | 1015.9 |
| 20260901032530 | 18 | 135 | 3.2 | 0.0 | 0.00 | 0.00 | 0.00 | 93 | 1016.0 |
| 20260901032033 | 18 | 135 | 3.2 | 0.0 | 0.00 | 0.00 | 0.00 | 93 | 1015.8 |
| 20260901031532 | 18 | 134 | 3.2 | 0.0 | 0.00 | 0.00 | 0.00 | 93 | 1016.0 |
| 20260901031029 | 18 | 132 | 3.2 | 0.0 | 0.00 | 0.00 | 0.00 | 93 | 1016.1 |
| 20260901030529 | 18 | 133 | 4.8 | 0.0 | 0.00 | 0.00 | 0.00 | 93 | 1016.1 |
| 20260901030029 | 18 | 134 | 6.4 | 0.0 | 0.00 | 0.00 | 0.00 | 93 | 1015.9 |